Language: 


Des rapports , des résumés tant et plus, au choix de chacun....


Données Historiques de Météogheer
Journalier Rapport pour Février 7, 2018 Unitée:  Impériale    Métrique   Les deux
Suivant Jour »
Journalier Hebdomadaire Mensuel Annuel Sur mesure
  Max: Min: Moyenne:
Température: 35.8 °F 26.4 °F 30.7 °F
Point de rosée: 26.6 °F 15.8 °F 21.2 °F
Humidité: 92% 45% 71%
Vent: 8.5mph 0mph 3.5mph
Rafales: 9.8mph - -
Vent- - NE
Pression: 30.1 in 29.9 in -
Pluie: 0 in    
Historical Graphs
 
 
Données tabulaires pour Février 7, 2018
Heure Température Point de rosée Pression Vent Vent Rafales Humidité Pluie Taux (Horaire) Conditions
00:01 28.8 °F 21.2 °F 29.9 in ENE 6.5 mph 8.7 mph 76% 0 in
00:06 28.6 °F 21.2 °F 29.9 in NE 8.1 mph 9.8 mph 75% 0 in
00:11 28.6 °F 21.2 °F 29.9 in NNE 7.4 mph 9.8 mph 75% 0 in
00:16 28.6 °F 21.2 °F 29.9 in NNE 5.6 mph 8.7 mph 75% 0 in
00:21 28.4 °F 21.2 °F 29.9 in NE 6.3 mph 8.9 mph 75% 0 in
00:26 28.4 °F 21.2 °F 29.9 in ENE 5.8 mph 8.9 mph 75% 0 in
00:31 28.2 °F 21.2 °F 29.9 in NE 7.4 mph 8.7 mph 75% 0 in
00:36 28.2 °F 21.2 °F 29.9 in NE 4 mph 8.9 mph 75% 0 in
00:41 27.9 °F 19.4 °F 29.9 in NE 6.9 mph 8.9 mph 75% 0 in
00:46 27.9 °F 19.4 °F 29.9 in NNE 8.5 mph 8.5 mph 75% 0 in
00:51 27.9 °F 19.4 °F 29.9 in NE 6 mph 8.5 mph 75% 0 in
00:56 27.7 °F 19.4 °F 29.9 in NE 6.9 mph 7.4 mph 75% 0 in
01:01 27.7 °F 19.4 °F 30 in NE 5.8 mph 7.4 mph 76% 0 in
01:06 27.5 °F 19.4 °F 30 in NE 5.6 mph 6.3 mph 76% 0 in
01:11 27.3 °F 19.4 °F 30 in NNE 4.9 mph 6.3 mph 76% 0 in
01:16 27.1 °F 19.4 °F 30 in NE 4.3 mph 6.5 mph 77% 0 in
01:21 27 °F 19.4 °F 30 in NE 6 mph 6.5 mph 77% 0 in
01:26 27 °F 19.4 °F 30 in NE 2.9 mph 6 mph 78% 0 in
01:32 27 °F 19.4 °F 30 in NE 3.1 mph 6.7 mph 78% 0 in
01:37 27 °F 19.4 °F 30 in NNE 1.6 mph 6.7 mph 79% 0 in
01:42 27 °F 19.4 °F 30 in North 2.5 mph 5.8 mph 79% 0 in
01:47 26.8 °F 19.4 °F 30 in NNE 2 mph 5.4 mph 79% 0 in
01:52 26.8 °F 19.4 °F 30 in North 2.5 mph 4.7 mph 79% 0 in
01:57 26.8 °F 19.4 °F 30 in North 1.1 mph 4.9 mph 79% 0 in
02:02 26.6 °F 21.2 °F 30 in North 3.8 mph 5.8 mph 80% 0 in
02:07 26.6 °F 21.2 °F 30 in NNE 2 mph 5.8 mph 80% 0 in
02:12 26.6 °F 21.2 °F 30 in NNW 4.9 mph 4.9 mph 80% 0 in
02:17 26.6 °F 21.2 °F 30 in North 4.3 mph 4.9 mph 80% 0 in
02:22 26.4 °F 21.2 °F 30 in NNE 3.8 mph 6 mph 80% 0 in
02:27 26.4 °F 21.2 °F 30 in Calm   6 mph 80% 0 in
02:32 26.6 °F 21.2 °F 30 in NNE 2.7 mph 5.4 mph 80% 0 in
02:37 26.6 °F 21.2 °F 30 in North 2.9 mph 5.4 mph 80% 0 in
02:42 26.6 °F 21.2 °F 30 in NE 2.7 mph 4.3 mph 80% 0 in
02:47 26.6 °F 21.2 °F 30 in NE 2.7 mph 3.6 mph 80% 0 in
02:52 26.8 °F 21.2 °F 30 in NNE 2.5 mph 2.7 mph 80% 0 in
02:57 27 °F 21.2 °F 30 in Calm   2.7 mph 81% 0 in
03:02 27.3 °F 21.2 °F 30 in North 1.1 mph 2.5 mph 82% 0 in
03:07 27.7 °F 21.2 °F 30 in NNE 4.9 mph 4.9 mph 82% 0 in
03:12 27.9 °F 21.2 °F 30 in NNE 4.9 mph 4.9 mph 82% 0 in
03:17 28 °F 23 °F 30 in NNE 4.9 mph 4.9 mph 82% 0 in
03:22 28.4 °F 21.2 °F 30 in NNE 4.9 mph 4.9 mph 81% 0 in
03:27 28.8 °F 23 °F 30 in NNE 4.9 mph 4.9 mph 80% 0 in
03:32 29.3 °F 23 °F 30 in NNE 4.9 mph 4.9 mph 80% 0 in
03:37 29.5 °F 23 °F 30 in NNE 4.9 mph 4.9 mph 79% 0 in
03:43 29.7 °F 23 °F 30 in NNE 4.9 mph 4.9 mph 78% 0 in
03:48 29.7 °F 21.2 °F 30 in NNE 4.9 mph 4.9 mph 76% 0 in
03:53 29.5 °F 21.2 °F 30 in NNE 4.9 mph 4.9 mph 76% 0 in
03:58 29.3 °F 21.2 °F 30 in NNE 4.9 mph 4.9 mph 75% 0 in
04:03 29.8 °F 21.2 °F 30 in NNE 4.9 mph 4.9 mph 76% 0 in
04:08 30 °F 23 °F 30 in NNE 4.9 mph 4.9 mph 75% 0 in
04:13 30.2 °F 23 °F 30 in NNE 4.9 mph 4.9 mph 75% 0 in
04:18 30.9 °F 21.2 °F 30 in NNE 4.9 mph 4.9 mph 73% 0 in
04:23 31.1 °F 21.2 °F 30 in NNE 4.9 mph 4.9 mph 72% 0 in
04:28 31.3 °F 23 °F 30 in NNE 4.9 mph 4.9 mph 72% 0 in
04:33 31.6 °F 21.2 °F 30 in NNE 5.4 mph 5.4 mph 70% 0 in
04:38 31.8 °F 21.2 °F 30 in NNE 5.4 mph 5.4 mph 69% 0 in
04:43 32.2 °F 23 °F 30 in NNE 5.4 mph 5.4 mph 68% 0 in
04:48 32.4 °F 23 °F 30 in NNE 5.4 mph 5.4 mph 67% 0 in
04:53 32.5 °F 23 °F 30 in NNE 5.4 mph 5.4 mph 65% 0 in
04:58 32.7 °F 21.2 °F 30 in NNE 5.4 mph 5.4 mph 62% 0 in
05:03 33.1 °F 21.2 °F 30 in NNE 5.4 mph 5.4 mph 60% 0 in
05:09 33.1 °F 21.2 °F 30 in NNE 5.4 mph 5.4 mph 58% 0 in
05:14 33.3 °F 19.4 °F 30 in NNE 5.4 mph 5.4 mph 57% 0 in
05:19 33.4 °F 19.4 °F 30 in NNE 5.4 mph 5.4 mph 55% 0 in
05:24 33.6 °F 19.4 °F 30 in NNE 5.4 mph 5.4 mph 56% 0 in
05:29 33.6 °F 19.4 °F 30 in NNE 5.4 mph 5.4 mph 55% 0 in
05:34 33.8 °F 19.4 °F 30 in NNE 5.4 mph 5.4 mph 54% 0 in
05:39 34.2 °F 19.4 °F 30 in NNE 5.4 mph 5.4 mph 54% 0 in
05:44 34.2 °F 19.4 °F 30 in NNE 5.4 mph 5.4 mph 52% 0 in
05:49 34.3 °F 19.4 °F 30 in NNE 5.4 mph 5.4 mph 53% 0 in
05:54 34.3 °F 19.4 °F 30 in NNE 5.4 mph 5.4 mph 52% 0 in
05:59 34.5 °F 19.4 °F 30 in NNE 5.4 mph 5.4 mph 52% 0 in
06:04 34.7 °F 19.4 °F 30 in NNE 5.4 mph 5.4 mph 50% 0 in
06:09 35.1 °F 19.4 °F 30 in NNE 5.4 mph 5.4 mph 50% 0 in
06:14 35.1 °F 19.4 °F 30 in NNE 5.4 mph 5.4 mph 50% 0 in
06:19 35.2 °F 17.6 °F 30 in NNE 5.4 mph 5.4 mph 47% 0 in
06:24 35.4 °F 15.8 °F 30 in NNE 5.4 mph 5.4 mph 45% 0 in
06:29 35.6 °F 17.6 °F 30 in NNE 5.4 mph 5.4 mph 46% 0 in
06:34 35.6 °F 17.6 °F 30 in NNE 5.4 mph 5.4 mph 46% 0 in
06:39 35.8 °F 17.6 °F 30 in NNE 5.4 mph 5.4 mph 46% 0 in
06:49 35.4 °F 17.6 °F 30 in NNE 5.4 mph 5.4 mph 48% 0 in
06:54 35.4 °F 17.6 °F 30 in NNE 5.4 mph 5.4 mph 47% 0 in
06:59 34.9 °F 17.6 °F 30 in NNE 5.4 mph 5.4 mph 47% 0 in
07:04 34.9 °F 17.6 °F 30 in NNE 5.4 mph 5.4 mph 47% 0 in
07:09 34.7 °F 17.6 °F 30 in NNE 5.4 mph 5.4 mph 48% 0 in
07:14 34.7 °F 17.6 °F 30 in NNE 5.4 mph 5.4 mph 48% 0 in
07:19 34.7 °F 17.6 °F 30 in NNE 5.4 mph 5.4 mph 48% 0 in
07:24 34.9 °F 17.6 °F 30 in NNE 5.4 mph 5.4 mph 49% 0 in
07:29 34.9 °F 17.6 °F 30.1 in NNE 5.4 mph 5.4 mph 47% 0 in
07:34 35.2 °F 17.6 °F 30.1 in NNE 5.4 mph 5.4 mph 48% 0 in
07:39 35.4 °F 17.6 °F 30.1 in NNE 5.4 mph 5.4 mph 48% 0 in
07:44 35.2 °F 17.6 °F 30 in NNE 5.4 mph 5.4 mph 48% 0 in
07:49 35.1 °F 17.6 °F 30 in NNE 5.4 mph 5.4 mph 47% 0 in
07:54 35.1 °F 17.6 °F 30 in NNE 5.4 mph 5.4 mph 47% 0 in
07:59 35.1 °F 17.6 °F 30.1 in NNE 5.4 mph 5.4 mph 47% 0 in
08:04 35.1 °F 17.6 °F 30.1 in NNE 5.4 mph 5.4 mph 48% 0 in
08:09 35.1 °F 17.6 °F 30.1 in NNE 5.4 mph 5.4 mph 48% 0 in
08:14 35.1 °F 15.8 °F 30.1 in NNE 5.4 mph 5.4 mph 46% 0 in
08:19 35.2 °F 15.8 °F 30.1 in NNE 5.4 mph 5.4 mph 45% 0 in
08:24 35.4 °F 17.6 °F 30.1 in NNE 5.4 mph 5.4 mph 46% 0 in
08:29 35.4 °F 17.6 °F 30.1 in NNE 5.4 mph 5.4 mph 48% 0 in
08:34 35.4 °F 17.6 °F 30.1 in NNE 5.4 mph 5.4 mph 48% 0 in
08:39 35.4 °F 17.6 °F 30.1 in NNE 5.4 mph 5.4 mph 48% 0 in
08:44 35.4 °F 17.6 °F 30 in NNE 5.4 mph 5.4 mph 48% 0 in
08:50 35.6 °F 19.4 °F 30 in NNE 5.4 mph 5.4 mph 50% 0 in
08:55 35.6 °F 19.4 °F 30 in NNE 5.4 mph 5.4 mph 50% 0 in
09:00 35.6 °F 19.4 °F 30.1 in NNE 5.4 mph 5.4 mph 50% 0 in
09:05 35.4 °F 19.4 °F 30.1 in NNE 5.4 mph 5.4 mph 51% 0 in
09:10 35.6 °F 19.4 °F 30.1 in NNE 5.4 mph 5.4 mph 50% 0 in
09:15 35.6 °F 19.4 °F 30.1 in NNE 5.4 mph 5.4 mph 50% 0 in
09:20 35.6 °F 19.4 °F 30.1 in NNE 5.4 mph 5.4 mph 50% 0 in
09:25 35.6 °F 19.4 °F 30.1 in NNE 5.4 mph 5.4 mph 50% 0 in
09:30 35.6 °F 19.4 °F 30.1 in NNE 5.4 mph 5.4 mph 50% 0 in
09:35 35.6 °F 19.4 °F 30.1 in NNE 5.4 mph 5.4 mph 51% 0 in
09:40 35.4 °F 19.4 °F 30.1 in NNE 5.4 mph 5.4 mph 50% 0 in
09:45 35.4 °F 19.4 °F 30 in NNE 5.4 mph 5.4 mph 50% 0 in
09:50 35.4 °F 19.4 °F 30 in NNE 5.4 mph 5.4 mph 50% 0 in
09:55 35.4 °F 19.4 °F 30 in NNE 5.4 mph 5.4 mph 51% 0 in
10:00 35.2 °F 19.4 °F 30 in NNE 5.4 mph 5.4 mph 51% 0 in
10:05 35.2 °F 19.4 °F 30 in NNE 5.4 mph 5.4 mph 51% 0 in
10:10 35.1 °F 19.4 °F 30 in NNE 5.4 mph 5.4 mph 50% 0 in
10:15 35.1 °F 19.4 °F 30 in NNE 5.4 mph 5.4 mph 51% 0 in
10:20 34.9 °F 19.4 °F 30 in NNE 5.4 mph 5.4 mph 52% 0 in
10:25 34.9 °F 19.4 °F 30 in NNE 5.4 mph 5.4 mph 53% 0 in
10:30 34.9 °F 19.4 °F 30.1 in NNE 5.4 mph 5.4 mph 53% 0 in
10:35 34.7 °F 19.4 °F 30.1 in NNE 5.4 mph 5.4 mph 53% 0 in
10:40 34.7 °F 19.4 °F 30.1 in NNE 5.4 mph 5.4 mph 53% 0 in
10:41 34.7 °F 21.2 °F 30.1 in NNE 5.4 mph 5.4 mph 54% 0 in
10:46 34.7 °F 21.2 °F 30 in NNE 5.4 mph 5.4 mph 54% 0 in
10:51 34.5 °F 19.4 °F 30 in NNE 5.4 mph 5.4 mph 55% 0 in
10:56 34.3 °F 19.4 °F 30 in NNE 5.4 mph 5.4 mph 55% 0 in
10:57 34.3 °F 19.4 °F 30 in NNE 5.4 mph 5.4 mph 55% 0 in
11:02 34.3 °F 19.4 °F 30.1 in NNE 5.4 mph 5.4 mph 55% 0 in
11:07 34.2 °F 21.2 °F 30.1 in NNE 5.4 mph 5.4 mph 56% 0 in
11:12 34.2 °F 21.2 °F 30.1 in NNE 5.4 mph 5.4 mph 56% 0 in
11:17 34 °F 21.2 °F 30 in NNE 5.4 mph 5.4 mph 57% 0 in
11:22 34 °F 21.2 °F 30 in NNE 5.4 mph 5.4 mph 57% 0 in
11:27 33.8 °F 21.2 °F 30 in NNE 5.4 mph 5.4 mph 58% 0 in
11:32 33.8 °F 21.2 °F 30.1 in NNE 5.4 mph 5.4 mph 58% 0 in
11:37 33.8 °F 21.2 °F 30.1 in NNE 5.4 mph 5.4 mph 58% 0 in
11:42 33.8 °F 21.2 °F 30.1 in NNE 5.4 mph 5.4 mph 58% 0 in
11:47 33.6 °F 21.2 °F 30.1 in NNE 5.4 mph 5.4 mph 59% 0 in
11:52 33.6 °F 21.2 °F 30.1 in NNE 5.4 mph 5.4 mph 59% 0 in
11:57 33.6 °F 21.2 °F 30.1 in NNE 5.4 mph 5.4 mph 59% 0 in
12:02 33.4 °F 21.2 °F 30.1 in NNE 5.4 mph 5.4 mph 60% 0 in
12:07 33.4 °F 21.2 °F 30.1 in NNE 5.4 mph 5.4 mph 60% 0 in
12:12 33.4 °F 21.2 °F 30.1 in NNE 5.4 mph 5.4 mph 60% 0 in
12:17 33.3 °F 21.2 °F 30.1 in NNE 5.4 mph 5.4 mph 61% 0 in
12:22 33.3 °F 21.2 °F 30.1 in NNE 5.4 mph 5.4 mph 61% 0 in
12:27 33.1 °F 21.2 °F 30.1 in NNE 5.4 mph 5.4 mph 61% 0 in
12:32 33.1 °F 21.2 °F 30.1 in NNE 5.4 mph 5.4 mph 62% 0 in
12:37 33.1 °F 21.2 °F 30.1 in NNE 5.4 mph 5.4 mph 62% 0 in
12:42 33.1 °F 21.2 °F 30.1 in NNE 5.4 mph 5.4 mph 62% 0 in
12:47 32.9 °F 21.2 °F 30.1 in NNE 5.4 mph 5.4 mph 62% 0 in
12:52 32.9 °F 21.2 °F 30.1 in NNE 5.4 mph 5.4 mph 62% 0 in
12:57 32.7 °F 21.2 °F 30.1 in NNE 5.4 mph 5.4 mph 63% 0 in
13:02 32.5 °F 21.2 °F 30.1 in NNE 5.4 mph 5.4 mph 63% 0 in
13:07 32.4 °F 21.2 °F 30.1 in NNE 5.4 mph 5.4 mph 64% 0 in
13:12 32.2 °F 21.2 °F 30.1 in NNE 5.4 mph 5.4 mph 64% 0 in
13:18 32 °F 21.2 °F 30.1 in NNE 5.4 mph 5.4 mph 65% 0 in
13:23 31.8 °F 21.2 °F 30.1 in NNE 5.4 mph 5.4 mph 66% 0 in
13:28 31.6 °F 21.2 °F 30.1 in NNE 5.4 mph 5.4 mph 66% 0 in
13:33 31.6 °F 21.2 °F 30.1 in NNE 5.4 mph 5.4 mph 66% 0 in
13:38 31.5 °F 21.2 °F 30.1 in NNE 5.4 mph 5.4 mph 67% 0 in
13:43 31.3 °F 21.2 °F 30.1 in NNE 5.4 mph 5.4 mph 67% 0 in
13:48 31.1 °F 19.4 °F 30.1 in NNE 5.4 mph 5.4 mph 67% 0 in
13:53 30.9 °F 19.4 °F 30.1 in NNE 5.4 mph 5.4 mph 67% 0 in
13:58 30.9 °F 19.4 °F 30.1 in NNE 5.4 mph 5.4 mph 67% 0 in
14:03 30.7 °F 21.2 °F 30.1 in NNE 5.4 mph 5.4 mph 68% 0 in
14:08 30.7 °F 21.2 °F 30.1 in NNE 5.4 mph 5.4 mph 68% 0 in
14:13 30.6 °F 19.4 °F 30.1 in NNE 5.4 mph 5.4 mph 68% 0 in
14:18 30.4 °F 19.4 °F 30.1 in NNE 5.4 mph 5.4 mph 68% 0 in
14:23 30.2 °F 19.4 °F 30.1 in NNE 5.4 mph 5.4 mph 68% 0 in
14:28 30 °F 19.4 °F 30.1 in NNE 5.4 mph 5.4 mph 68% 0 in
14:33 29.7 °F 19.4 °F 30.1 in NNE 5.4 mph 5.4 mph 68% 0 in
14:38 29.5 °F 19.4 °F 30.1 in NNE 5.4 mph 5.4 mph 68% 0 in
14:43 29.3 °F 19.4 °F 30.1 in NNE 5.4 mph 5.4 mph 69% 0 in
14:48 28.9 °F 19.4 °F 30.1 in NNE 5.4 mph 5.4 mph 69% 0 in
14:53 28.6 °F 19.4 °F 30.1 in NNE 5.4 mph 5.4 mph 70% 0 in
14:58 28.6 °F 19.4 °F 30.1 in NNE 5.4 mph 5.4 mph 71% 0 in
15:03 28.4 °F 19.4 °F 30.1 in NNE 5.4 mph 5.4 mph 72% 0 in
15:09 28.2 °F 19.4 °F 30.1 in NNE 5.4 mph 5.4 mph 73% 0 in
15:14 28 °F 19.4 °F 30.1 in NNE 5.4 mph 5.4 mph 73% 0 in
15:19 27.9 °F 19.4 °F 30.1 in NNE 5.4 mph 5.4 mph 74% 0 in
15:24 27.9 °F 19.4 °F 30.1 in NNE 5.4 mph 5.4 mph 74% 0 in
15:29 27.9 °F 19.4 °F 30.1 in NNE 5.4 mph 5.4 mph 75% 0 in
15:34 28 °F 21.2 °F 30.1 in NNE 5.4 mph 5.4 mph 76% 0 in
15:39 28 °F 21.2 °F 30.1 in NNE 5.4 mph 5.4 mph 76% 0 in
15:44 28 °F 21.2 °F 30.1 in NNE 5.4 mph 5.4 mph 77% 0 in
15:49 28.2 °F 21.2 °F 30.1 in NNE 5.4 mph 5.4 mph 77% 0 in
15:54 28.4 °F 21.2 °F 30.1 in NNE 5.4 mph 5.4 mph 78% 0 in
15:59 28.4 °F 21.2 °F 30.1 in NNE 5.4 mph 5.4 mph 78% 0 in
16:04 28.8 °F 21.2 °F 30.1 in NNE 5.4 mph 5.4 mph 78% 0 in
16:09 28.9 °F 21.2 °F 30.1 in NNE 5.4 mph 5.4 mph 78% 0 in
16:14 29.1 °F 21.2 °F 30.1 in NNE 5.4 mph 5.4 mph 78% 0 in
16:19 29.1 °F 23 °F 30.1 in NNE 5.4 mph 5.4 mph 79% 0 in
16:24 29.3 °F 23 °F 30.1 in NNE 5.4 mph 5.4 mph 79% 0 in
16:29 29.3 °F 23 °F 30.1 in NNE 5.4 mph 5.4 mph 80% 0 in
16:34 29.5 °F 23 °F 30.1 in Calm     80% 0 in
16:39 29.5 °F 23 °F 30.1 in Calm     80% 0 in
16:44 29.5 °F 23 °F 30.1 in Calm     80% 0 in
16:50 29.7 °F 23 °F 30.1 in Calm     80% 0 in
16:55 29.7 °F 23 °F 30.1 in Calm     81% 0 in
17:00 29.7 °F 23 °F 30.1 in Calm     81% 0 in
17:05 29.7 °F 23 °F 30.1 in Calm     82% 0 in
17:10 29.5 °F 23 °F 30.1 in Calm     82% 0 in
17:15 29.5 °F 23 °F 30.1 in Calm     82% 0 in
17:20 29.5 °F 23 °F 30.1 in Calm     82% 0 in
17:25 29.5 °F 23 °F 30.1 in Calm     82% 0 in
17:30 29.5 °F 23 °F 30.1 in Calm     81% 0 in
17:35 29.5 °F 23 °F 30.1 in Calm     81% 0 in
17:40 29.5 °F 23 °F 30.1 in Calm     81% 0 in
17:45 29.1 °F 23 °F 30.1 in Calm     81% 0 in
17:50 28.9 °F 23 °F 30.1 in Calm     81% 0 in
17:55 28.6 °F 23 °F 30.1 in Calm     81% 0 in
18:00 28.4 °F 21.2 °F 30.1 in Calm     81% 0 in
18:05 28 °F 21.2 °F 30.1 in Calm     81% 0 in
18:10 28 °F 21.2 °F 30.1 in Calm     81% 0 in
18:15 28.2 °F 23 °F 30.1 in Calm     82% 0 in
18:20 28.2 °F 23 °F 30.1 in Calm     83% 0 in
18:25 28.2 °F 23 °F 30.1 in Calm     83% 0 in
18:30 28.4 °F 23 °F 30.1 in Calm     83% 0 in
18:35 28.6 °F 23 °F 30.1 in Calm     83% 0 in
18:40 28.6 °F 23 °F 30.1 in Calm     83% 0 in
18:46 28.4 °F 23 °F 30.1 in Calm     83% 0 in
18:51 28.2 °F 23 °F 30.1 in Calm     83% 0 in
18:56 27.9 °F 21.2 °F 30.1 in Calm     83% 0 in
19:01 27.7 °F 21.2 °F 30.1 in Calm     83% 0 in
19:06 27.5 °F 21.2 °F 30.1 in Calm     83% 0 in
19:11 27.5 °F 21.2 °F 30.1 in Calm     84% 0 in
19:16 27.5 °F 21.2 °F 30.1 in Calm     84% 0 in
19:21 27.3 °F 23 °F 30.1 in Calm     85% 0 in
19:26 27.3 °F 23 °F 30.1 in Calm     85% 0 in
19:31 27.1 °F 23 °F 30.1 in Calm     85% 0 in
19:36 27.3 °F 23 °F 30.1 in Calm     86% 0 in
19:41 27.5 °F 23 °F 30.1 in Calm     86% 0 in
19:46 27.7 °F 23 °F 30.1 in West 1.6 mph 1.6 mph 86% 0 in
19:51 27.7 °F 23 °F 30.1 in Calm   1.6 mph 87% 0 in
19:56 27.7 °F 23 °F 30.1 in Calm   1.6 mph 87% 0 in
20:01 27.7 °F 23 °F 30.1 in Calm     87% 0 in
20:06 27.7 °F 23 °F 30.1 in Calm     87% 0 in
20:11 27.7 °F 23 °F 30.1 in Calm     87% 0 in
20:16 27.5 °F 23 °F 30.1 in Calm     87% 0 in
20:21 27.3 °F 23 °F 30.1 in Calm     87% 0 in
20:27 27.1 °F 23 °F 30.1 in Calm     87% 0 in
20:32 27.1 °F 23 °F 30.1 in Calm     87% 0 in
20:37 27.3 °F 23 °F 30.1 in Calm     88% 0 in
20:42 27.5 °F 23 °F 30.1 in Calm     88% 0 in
20:47 27.9 °F 23 °F 30.1 in Calm     89% 0 in
20:52 28 °F 24.8 °F 30.1 in Calm     89% 0 in
20:57 28 °F 24.8 °F 30.1 in Calm     89% 0 in
21:02 28.2 °F 24.8 °F 30.1 in Calm     89% 0 in
21:07 28.2 °F 24.8 °F 30.1 in Calm     89% 0 in
21:12 28.2 °F 24.8 °F 30.1 in Calm     89% 0 in
21:17 28.2 °F 24.8 °F 30.1 in Calm     89% 0 in
21:22 28.2 °F 24.8 °F 30.1 in Calm     89% 0 in
21:27 28.2 °F 24.8 °F 30.1 in Calm     89% 0 in
21:32 28.2 °F 24.8 °F 30.1 in Calm     89% 0 in
21:37 28.2 °F 24.8 °F 30.1 in Calm     89% 0 in
21:42 28.4 °F 24.8 °F 30.1 in Calm   2.2 mph 89% 0 in
21:47 28.4 °F 24.8 °F 30.1 in Calm   2.2 mph 90% 0 in
21:52 28.2 °F 24.8 °F 30.1 in Calm     90% 0 in
21:57 28 °F 24.8 °F 30.1 in Calm     89% 0 in
22:02 28 °F 24.8 °F 30.1 in Calm     89% 0 in
22:07 28 °F 24.8 °F 30.1 in Calm     89% 0 in
22:12 28 °F 24.8 °F 30.1 in Calm     90% 0 in
22:17 27.9 °F 23 °F 30.1 in Calm     90% 0 in
22:22 27.9 °F 23 °F 30.1 in Calm     90% 0 in
22:27 27.9 °F 23 °F 30.1 in Calm     90% 0 in
22:32 27.9 °F 23 °F 30.1 in Calm     90% 0 in
22:37 28 °F 24.8 °F 30.1 in Calm     90% 0 in
22:42 28.2 °F 24.8 °F 30.1 in Calm   1.6 mph 91% 0 in
22:48 28.6 °F 24.8 °F 30.1 in Calm   1.6 mph 91% 0 in
22:53 28.8 °F 26.6 °F 30.1 in Calm   1.3 mph 92% 0 in
22:58 28.9 °F 26.6 °F 30.1 in Calm     92% 0 in
23:03 28.9 °F 26.6 °F 30.1 in Calm   1.3 mph 92% 0 in
23:08 29.1 °F 26.6 °F 30.1 in Calm   1.3 mph 92% 0 in
23:13 29.1 °F 26.6 °F 30.1 in Calm     92% 0 in
23:18 29.3 °F 26.6 °F 30.1 in Calm     91% 0 in
23:23 29.5 °F 26.6 °F 30.1 in Calm   1.1 mph 91% 0 in
23:28 29.5 °F 26.6 °F 30.1 in Calm   1.1 mph 92% 0 in
23:33 29.7 °F 26.6 °F 30.1 in Calm     92% 0 in
23:38 29.8 °F 26.6 °F 30.1 in Calm     92% 0 in
23:43 29.8 °F 26.6 °F 30.1 in Calm     92% 0 in
23:48 29.8 °F 26.6 °F 30.1 in Calm     91% 0 in
23:53 30 °F 26.6 °F 30.1 in Calm     91% 0 in
23:58 30.2 °F 26.6 °F 30.1 in Calm     91% 0 in
Données Historique de Météo Turbie

Mise a jour : 21/05/2018 16:54:12
Généré par Cumulus 1.9.4 (1099)